Regional Weather Roundup
Issued by NWS

Home | Current Version | Previous Version | Text Only | Print | Product List | Glossary Off
Versions: 1 2 3 4 5 6 7 8 9 10 11 12 13 14 15 16 17 18 19 20 21 22 23 24 25 26 27 28 29 30 31 32 33 34 35 36 37 38 39 40 41 42 43 44 45 46 47 48 49 50

000
ASUS45 KBOU 041807
RWRCO

WEATHER ROUNDUP FOR COLORADO
NATIONAL WEATHER SERVICE DENVER/BOULDER CO
1200 PM MDT TUE AUG 04 2015

NOTE: "FAIR" INDICATES FEW OR NO CLOUDS BELOW 12000 FEET WITH NO
SIGNIFICANT WEATHER AND/OR OBSTRUCTIONS TO VISIBILITY.

COZ001>005-013-030-031-041900-
...NORTHWEST COLORADO...

CITY           SKY/WX    TMP DP  RH WIND       PRES   REMARKS
CRAIG          NOT AVBL
HAYDEN         MOSUNNY   72  45  37 W22G30    30.25S
MEEKER         SUNNY     77  44  30 VRB7G17   30.25S
MOUNT WERNER   NOT AVBL
STEAMBOAT SPGS   N/A     66  50  55 SW3       30.27S
WALDEN         PTSUNNY   61  39  44 SW18G24   30.31R
$$

COZ006>008-011-041900-
...WEST CENTRAL VALLEYS...

CITY           SKY/WX    TMP DP  RH WIND       PRES   REMARKS
GRAND JUNCTION SUNNY     81  49  32 SW5       30.16F
MONTROSE       SUNNY     78  46  32 CALM      30.23F
EAGLE          MOSUNNY   77  39  25 SW28G35   30.24F
RIFLE          SUNNY     77  48  35 CALM      30.19F
DELTA          SUNNY     82  46  28 S6        30.19S HAZE
NUCLA          SUNNY     77  46  33 CALM      30.27F
$$

COZ017>023-064>068-041900-
...SOUTHWEST COLORADO...

CITY           SKY/WX    TMP DP  RH WIND       PRES   REMARKS
DURANGO        SUNNY     81  43  26 SW15G23   30.26F
CORTEZ         SUNNY     81  49  32 W6        30.23F
PAGOSA SPRINGS MOSUNNY   76  38  25 S14       30.34F
TELLURIDE      SUNNY     68  39  34 W14       30.48S
WOLF CREEK PAS NOT AVBL
$$

COZ009-010-012-014-032>034-037-058>063-041900-
...CENTRAL COLORADO...

CITY           SKY/WX    TMP DP  RH WIND       PRES   REMARKS
ASPEN          SUNNY     72  44  36 N13G22    30.33R
BUENA VISTA    MOSUNNY   74  37  25 W17G24    30.30S
COPPER MTN     MOSUNNY   55  28  35 W37G48    30.59R
BERTHOUD PASS  PTSUNNY   46  36  66 NW40G51   30.55F
COTTONWOOD PAS PTSUNNY   68  37  32 NW5       30.45S
GUNNISON       MOSUNNY   70  46  43 SW5       30.37S
KREMMLING      MOSUNNY   77  32  19 W13G22    30.28S
LEADVILLE      MOSUNNY   63  34  33 NW17G31   30.45R
MONARCH PASS   MOSUNNY   52  39  62 W31G45    30.71R
SALIDA         PTSUNNY   78  39  24 W14G22    30.35S
SUNLIGHT       SUNNY     61  46  59 SW3       30.58R
WILKERSON PASS NOT AVBL
$$

COZ069>075-041900-
...SAN LUIS VALLEY/SANGRE DE CRISTO MOUNTAINS...

CITY           SKY/WX    TMP DP  RH WIND       PRES   REMARKS
ALAMOSA        SUNNY     73  45  36 VRB5      30.32S
LA VETA PASS   SUNNY     64  37  36 MISG      30.50R
SAGUACHE       MOSUNNY   72  45  37 NE5       30.34S
$$

COZ035-036-038>040-041900-
...NORTHERN COLORADO FRONT RANGE...

CITY           SKY/WX    TMP DP  RH WIND       PRES   REMARKS
DENVER INTL AP MOSUNNY   83  41  22 W7        30.07F
DMNS CITY PARK   N/A     83  42  24 SW6       30.07F
AURORA         MOSUNNY   79  43  27 N7        30.11F
FRONT RANGE AP MOSUNNY   82  39  21 NW7       30.09F
ERIE MUNI ARPT PTSUNNY   83  37  19 W6G17     30.05F
BOULDER MUN AP PTSUNNY   77  43  29 SW5       30.06F
CENTENNIAL     MOSUNNY   80  43  26 N7        30.12F
BROOMFIELD     PTSUNNY   82  43  24 SW6       30.10F
FORT COLLINS   MOSUNNY   81  46  30 SW6       30.04F
LONGMONT       MOSUNNY   87  43  21 S6        30.04F
$$

COZ041-046-047-076>085-087-088-041900-
...PIKES PEAK/PALMER DIVIDE AND SOUTHERN FOOTHILLS...

CITY           SKY/WX    TMP DP  RH WIND       PRES   REMARKS
COLO. SPRINGS  MOSUNNY   84  38  19 NW16G22   30.14F
A. F. ACADEMY  SUNNY     81  37  21 NW15G21   30.14F
ELLICOTT       SUNNY    N/A N/A N/A NW6G16    30.13S
FALCON         SUNNY     78  40  25 NE5       30.21S
FORT CARSON    SUNNY     83  42  23 VRB5      30.11F
LIMON          SUNNY     82  46  28 N12G18    30.08F
MONUMENT HILL  SUNNY     75  37  25 N7        30.21F
TRINIDAD       SUNNY     88  45  22 NW14      30.12S
$$

COZ042>045-048>051-090-091-041900-
...NORTHEAST COLORADO...

CITY           SKY/WX    TMP DP  RH WIND       PRES   REMARKS
GREELEY ARPT   MOSUNNY   81  48  32 S8        30.04F
AKRON          SUNNY     84  48  28 NW18      30.02F
BURLINGTON     SUNNY     82  58  43 NW12      29.99S
WRAY           MOSUNNY   87  57  36 E3        29.96S
STERLING       MOSUNNY   82  54  36 N24       29.97S
HOLYOKE        MOSUNNY   70  63  78 NE7       29.99R
FORT MORGAN    MOSUNNY   85  44  23 W7G21     30.02S
$$

COZ086-089-092>099-041900-
...SOUTHEAST COLORADO...

CITY           SKY/WX    TMP DP  RH WIND       PRES   REMARKS
PUEBLO         SUNNY     89  42  19 NW8G24    30.03S
LA JUNTA       SUNNY     89  53  29 W14       29.99F
LAMAR          SUNNY     86  57  37 SW10      29.95F
SPRINGFIELD      N/A     91  51  25 NW10      30.00F
$$


USA.gov is the U.S. government's official web portal to all federal, state and local government web resources and services.